Location: Coll
(42.4728°N, 0.7714°E)
Time: 12:30:14
(UTC+00:00)

DELTA 2 R/B (1) - Pass Details

Date: 23 October 2020
Orbit: 790 x 803 km, 39.6° (Epoch: 30 November)

Event Time Altitude Azimuth Distance (km) Brightness Sun altitude
Exits shadow 05:09:09 19° 264° (W) 1,809 4.8 -13.7°
Maximum altitude 05:12:56 51° 196° (SSW) 1,000 4.0 -13.0°
Drops below altitude 10° 05:18:20 10° 121° (ESE) 2,371 7.1 -12.0°
Sets 05:20:53 0° 117° (ESE) 3,300 8.2 -11.5°
